Location: Prague
(50.0830°N, 14.4670°E)
Time: 09:56:21
(UTC+02:00)

RS-15 - Pass Details

Date: 02 April 2023
Orbit: 1885 x 2159 km, 64.8° (Epoch: 29 May)

Event Time Altitude Azimuth Distance (km) Brightness Sun altitude
Rises 00:12:34 0° 317° (NW) 5,658 11.3 -34.0°
Reaches altitude 10° 00:16:04 10° 318° (NW) 4,631 10.6 -34.1°
Maximum altitude 00:28:14 83° 48° (NE) 2,069 8.0 -34.6°
Enters shadow 00:31:10 59° 128° (SE) 2,284 8.0 -34.7°
